Location: Unspecified
(0.0000°N, 0.0000°E)
Time: 17:55:56
(UTC+00:00)

SR 7A - Visible Passes

Search period start: 15 May 2026 00:00
Search period end: 25 May 2026 00:00
Orbit: 899 x 916 km, 69.9° (Epoch: 15 May)

Date Brightness Start Highest point End Pass type
(mag) Time Alt. Az. Time Alt. Az. Time Alt. Az.
15 May 7.6 18:58:21 10° N 19:04:03 46° ENE 19:07:35 22° SE visible
15 May 9.8 20:46:44 10° W 20:49:26 13° WSW 20:50:53 12° WSW visible
16 May 7.3 19:02:53 10° N 19:08:50 71° ENE 19:13:30 17° SSE visible
17 May 7.5 19:07:39 10° NNW 19:13:38 77° WSW 19:19:26 11° SSE visible
18 May 8.2 19:12:39 10° NNW 19:18:25 50° WSW 19:24:14 10° S visible
19 May 8.9 19:17:56 10° NW 19:23:13 33° WSW 19:28:34 10° S visible
20 May 9.6 19:23:34 10° WNW 19:28:02 22° WSW 19:32:32 10° SSW visible
21 May 10.0 19:29:53 10° WNW 19:32:51 14° WSW 19:35:51 10° SW visible
22 May 10.0 04:54:05 10° SE 04:57:18 15° ESE 05:00:30 10° ENE visible
23 May 9.6 04:57:31 10° SSE 05:02:08 23° ESE 05:06:41 10° ENE visible
24 May 8.9 05:01:32 10° S 05:06:56 35° ESE 05:12:16 10° NE visible
